Weather History for Topeka, KS

Change the Weather History Date:

Wednesday, March 20, 2013

  Actual Average Record
Temperature  
Mean Temperature 34 °F 46 °F  
Max Temperature 44 °F 58 °F 85 °F (1953)
Min Temperature 24 °F 35 °F 5 °F (1906)
Degree Days  
Heating Degree Days 31 19  
Month to date heating degree days 496 442  
Since 1 July heating degree days 4053 4409  
Cooling Degree Days 0 0  
Month to date cooling degree days 0 0  
Year to date cooling degree days 0 0  
Moisture  
Dew Point 15 °F    
Average Humidity 57    
Maximum Humidity 89    
Minimum Humidity 24    
Precipitation  
Precipitation 0.00 in 0.09 in 1.22 in (1962)
Month to date precipitation 1.48 1.45  
Year to date precipitation 3.92 3.63  
Snow  
Snow 0.00 in 0.00 in 4.80 in (1961)
Month to date snowfall 1.7 1.2  
Year to date snowfall 17.7 10.6  
Since 1 July snowfall 23.1 17.1  
Snow Depth 0.00 in    
Sea Level Pressure  
Sea Level Pressure 30.33 in    
Wind  
Wind Speed 10 mph (North)    
Max Wind Speed 21 mph    
Max Gust Speed 27 mph    
Visibility 10 miles    
Events      
T = Trace of Precipitation, MM = Missing Value Source: NWS Daily Summary

Daily Weather History Graph

Daily Weather History Graph

Search for Another Location

Airport:

Trip Planner

Search our weather history database for the weather conditions in past years. The results will help you decide how hot, cold, wet, or windy it might be!

Date:

Astronomy

Mar. 20, 2013 Rise Set
Actual Time 7:25 AM CDT 7:34 PM CDT
Civil Twilight 6:58 AM CDT 8:01 PM CDT
Nautical Twilight 6:27 AM CDT 8:32 PM CDT
Astronomical Twilight 5:56 AM CDT 9:04 PM CDT
Moon 1:13 PM CDT (3/20) 3:03 AM CDT (3/20)
Length of Visible Light 13h 02m
Length of Day
12h 09m
First Quarter, 59% of the Moon is Illuminated
Mar 20
First Quarter
Mar 27
Full
Apr 2
Last Quarter
Apr 10
New
Apr 18
First Quarter

Hourly Weather History & Observations

Time (CDT) Temp. Windchill Dew Point Humidity Pressure Visibility Wind Dir Wind Speed Gust Speed Precip Events Conditions
12:53 AM 36.0 °F 29.6 °F 32.0 °F 86% 30.31 in 10.0 mi NW 8.1 mph - N/A   Overcast
1:53 AM 36.0 °F 29.6 °F 28.0 °F 73% 30.33 in 10.0 mi NNW 8.1 mph - N/A   Mostly Cloudy
2:53 AM 33.1 °F 23.4 °F 23.0 °F 66% 30.36 in 10.0 mi North 13.8 mph - N/A   Overcast
3:53 AM 30.9 °F 22.2 °F 21.9 °F 69% 30.37 in 10.0 mi North 10.4 mph - N/A   Clear
4:53 AM 28.9 °F 19.8 °F 16.0 °F 58% 30.39 in 10.0 mi NNW 10.4 mph - N/A   Partly Cloudy
5:53 AM 28.0 °F 17.5 °F 10.9 °F 49% 30.41 in 10.0 mi North 12.7 mph 24.2 mph N/A   Overcast
6:53 AM 26.1 °F 13.1 °F 10.9 °F 53% 30.44 in 10.0 mi North 17.3 mph 25.3 mph N/A   Mostly Cloudy
7:53 AM 24.1 °F 13.1 °F 10.9 °F 57% 30.45 in 10.0 mi NNW 11.5 mph - N/A   Partly Cloudy
8:53 AM 26.1 °F 14.5 °F 12.0 °F 55% 30.46 in 10.0 mi NNW 13.8 mph - N/A   Clear
9:53 AM 28.0 °F 17.5 °F 14.0 °F 56% 30.45 in 10.0 mi NNW 12.7 mph - N/A   Clear
10:53 AM 30.0 °F 19.5 °F 12.0 °F 47% 30.45 in 10.0 mi North 13.8 mph - N/A   Clear
11:53 AM 34.0 °F 24.6 °F 12.9 °F 42% 30.44 in 10.0 mi North 13.8 mph 20.7 mph N/A   Clear
12:53 PM 37.9 °F 29.6 °F 12.0 °F 35% 30.41 in 10.0 mi NNW 13.8 mph 21.9 mph N/A   Clear
1:53 PM 39.0 °F 30.6 °F 10.0 °F 30% 30.37 in 10.0 mi North 15.0 mph 21.9 mph N/A   Clear
2:53 PM 41.0 °F 33.9 °F 10.9 °F 29% 30.32 in 10.0 mi NW 12.7 mph 18.4 mph N/A   Clear
3:53 PM 43.0 °F 36.0 °F 10.9 °F 27% 30.26 in 10.0 mi North 13.8 mph 23.0 mph N/A   Clear
4:53 PM 43.0 °F 36.8 °F 9.0 °F 25% 30.25 in 10.0 mi North 11.5 mph 19.6 mph N/A   Clear
5:53 PM 43.0 °F 37.7 °F 9.0 °F 25% 30.22 in 10.0 mi North 9.2 mph - N/A   Clear
6:53 PM 39.9 °F 35.1 °F 10.0 °F 29% 30.20 in 10.0 mi North 6.9 mph - N/A   Clear
7:53 PM 36.0 °F 29.6 °F 10.0 °F 34% 30.19 in 10.0 mi NNE 8.1 mph - N/A   Clear
8:53 PM 35.1 °F 32.2 °F 12.0 °F 39% 30.19 in 10.0 mi ESE 3.5 mph - N/A   Clear
9:53 PM 30.9 °F 27.5 °F 17.1 °F 57% 30.18 in 10.0 mi ENE 3.5 mph - N/A   Clear
10:53 PM 30.0 °F 26.5 °F 15.1 °F 54% 30.17 in 10.0 mi East 3.5 mph - N/A   Clear
11:53 PM 30.0 °F - 14.0 °F 51% 30.15 in 10.0 mi Calm Calm - N/A   Clear